Time,TemperatureF,DewpointF,PressureIn,WindDirection,WindDirectionDegrees,WindSpeedMPH,WindSpeedGustMPH,Humidity,HourlyPrecipIn,Conditions,Clouds,dailyrainin,SolarRadiationWatts/m^2,SoftwareType,DateUTC
2013-03-03 00:04:00,16.7,13.0,30.26,West,268,0.0,0.0,85,0.00,,,0.00,0,Wunderground v.1.15,2013-03-03 06:04:00,
2013-03-03 00:10:00,16.6,12.9,30.26,West,268,0.0,0.0,85,0.00,,,0.00,0,Wunderground v.1.15,2013-03-03 06:10:00,
2013-03-03 00:15:00,16.4,12.7,30.26,West,268,0.0,0.0,85,0.00,,,0.00,0,Wunderground v.1.15,2013-03-03 06:15:00,
2013-03-03 00:21:00,16.3,12.6,30.26,West,268,0.0,0.0,85,0.00,,,0.00,0,Wunderground v.1.15,2013-03-03 06:21:00,
2013-03-03 00:27:00,16.0,12.6,30.26,West,268,0.0,0.0,86,0.00,,,0.00,0,Wunderground v.1.15,2013-03-03 06:27:00,
2013-03-03 00:32:00,15.9,12.5,30.26,West,268,0.0,0.0,86,0.00,,,0.00,0,Wunderground v.1.15,2013-03-03 06:32:00,
2013-03-03 00:38:00,15.8,12.4,30.26,West,268,0.0,0.0,86,0.00,,,0.00,0,Wunderground v.1.15,2013-03-03 06:38:00,
2013-03-03 00:44:00,15.7,12.3,30.26,West,268,0.0,0.0,86,0.00,,,0.00,0,Wunderground v.1.15,2013-03-03 06:44:00,
2013-03-03 00:50:00,15.5,12.1,30.27,West,268,0.0,0.0,86,0.00,,,0.00,0,Wunderground v.1.15,2013-03-03 06:50:00,
2013-03-03 00:55:00,15.4,12.0,30.27,West,268,0.0,0.0,86,0.00,,,0.00,0,Wunderground v.1.15,2013-03-03 06:55:00,
2013-03-03 01:01:00,15.2,12.0,30.27,West,268,0.0,0.0,87,0.00,,,0.00,0,Wunderground v.1.15,2013-03-03 07:01:00,
2013-03-03 01:07:00,15.1,11.9,30.27,West,268,0.0,0.0,87,0.00,,,0.00,0,Wunderground v.1.15,2013-03-03 07:07:00,
2013-03-03 01:13:00,15.0,11.8,30.27,West,268,0.0,0.0,87,0.00,,,0.00,0,Wunderground v.1.15,2013-03-03 07:13:00,
2013-03-03 01:19:00,14.9,11.7,30.27,West,268,0.0,0.0,87,0.00,,,0.00,0,Wunderground v.1.15,2013-03-03 07:19:00,
2013-03-03 01:25:00,14.8,11.9,30.27,West,268,0.0,0.0,88,0.00,,,0.00,0,Wunderground v.1.15,2013-03-03 07:25:00,
2013-03-03 01:31:00,14.8,11.9,30.27,West,268,0.0,0.0,88,0.00,,,0.00,0,Wunderground v.1.15,2013-03-03 07:31:00,
2013-03-03 01:37:00,14.7,11.8,30.27,West,268,0.0,0.0,88,0.00,,,0.00,0,Wunderground v.1.15,2013-03-03 07:37:00,
2013-03-03 01:42:00,14.7,11.8,30.27,West,268,0.0,0.0,88,0.00,,,0.00,0,Wunderground v.1.15,2013-03-03 07:42:00,
2013-03-03 01:48:00,14.7,11.8,30.27,West,268,0.0,0.0,88,0.00,,,0.00,0,Wunderground v.1.15,2013-03-03 07:48:00,
2013-03-03 01:54:00,14.6,11.7,30.26,West,268,0.0,0.0,88,0.00,,,0.00,0,Wunderground v.1.15,2013-03-03 07:54:00,
2013-03-03 02:00:00,14.5,11.6,30.26,West,268,0.0,0.0,88,0.00,,,0.00,0,Wunderground v.1.15,2013-03-03 08:00:00,
2013-03-03 02:06:00,14.4,11.5,30.26,West,268,0.0,0.0,88,0.00,,,0.00,0,Wunderground v.1.15,2013-03-03 08:06:00,
2013-03-03 02:12:00,14.3,11.4,30.26,West,268,0.0,0.0,88,0.00,,,0.00,0,Wunderground v.1.15,2013-03-03 08:12:00,
2013-03-03 02:18:00,14.3,11.4,30.26,West,268,0.0,0.0,88,0.00,,,0.00,0,Wunderground v.1.15,2013-03-03 08:18:00,
2013-03-03 02:24:00,14.2,11.6,30.25,West,268,0.0,0.0,89,0.00,,,0.00,0,Wunderground v.1.15,2013-03-03 08:24:00,
2013-03-03 02:29:00,14.1,11.5,30.25,West,268,0.0,0.0,89,0.00,,,0.00,0,Wunderground v.1.15,2013-03-03 08:29:00,
2013-03-03 02:35:00,14.1,11.5,30.25,West,268,0.0,0.0,89,0.00,,,0.00,0,Wunderground v.1.15,2013-03-03 08:35:00,
2013-03-03 02:41:00,14.0,11.4,30.25,West,268,0.0,0.0,89,0.00,,,0.00,0,Wunderground v.1.15,2013-03-03 08:41:00,
2013-03-03 02:47:00,13.9,11.3,30.24,West,268,0.0,0.0,89,0.00,,,0.00,0,Wunderground v.1.15,2013-03-03 08:47:00,
2013-03-03 02:52:00,13.9,11.3,30.24,West,268,0.0,0.0,89,0.00,,,0.00,0,Wunderground v.1.15,2013-03-03 08:52:00,
2013-03-03 02:58:00,13.8,11.2,30.24,West,268,0.0,0.0,89,0.00,,,0.00,0,Wunderground v.1.15,2013-03-03 08:58:00,
2013-03-03 03:03:00,13.8,11.2,30.24,West,268,0.0,0.0,89,0.00,,,0.00,0,Wunderground v.1.15,2013-03-03 09:03:00,
2013-03-03 03:09:00,13.7,11.1,30.23,West,268,0.0,0.0,89,0.00,,,0.00,0,Wunderground v.1.15,2013-03-03 09:09:00,
2013-03-03 03:15:00,13.7,11.1,30.23,West,268,0.0,0.0,89,0.00,,,0.00,0,Wunderground v.1.15,2013-03-03 09:15:00,
2013-03-03 03:21:00,13.7,11.1,30.23,West,268,0.0,0.0,89,0.00,,,0.00,0,Wunderground v.1.15,2013-03-03 09:21:00,
2013-03-03 03:27:00,13.7,11.1,30.23,West,268,0.0,0.0,89,0.00,,,0.00,0,Wunderground v.1.15,2013-03-03 09:27:00,
2013-03-03 03:33:00,13.7,11.1,30.23,West,268,0.0,0.0,89,0.00,,,0.00,0,Wunderground v.1.15,2013-03-03 09:33:00,
2013-03-03 03:38:00,13.7,11.1,30.23,West,268,0.0,0.0,89,0.00,,,0.00,0,Wunderground v.1.15,2013-03-03 09:38:00,
2013-03-03 03:44:00,13.6,11.0,30.23,West,268,0.0,0.0,89,0.00,,,0.00,0,Wunderground v.1.15,2013-03-03 09:44:00,
2013-03-03 03:50:00,13.5,10.9,30.22,West,268,0.0,0.0,89,0.00,,,0.00,0,Wunderground v.1.15,2013-03-03 09:50:00,
2013-03-03 03:56:00,13.5,11.1,30.22,West,268,0.0,0.0,90,0.00,,,0.00,0,Wunderground v.1.15,2013-03-03 09:56:00,
2013-03-03 04:01:00,13.5,11.1,30.22,West,268,0.0,0.0,90,0.00,,,0.00,0,Wunderground v.1.15,2013-03-03 10:01:00,
2013-03-03 04:07:00,13.5,11.1,30.22,West,268,0.0,0.0,90,0.00,,,0.00,0,Wunderground v.1.15,2013-03-03 10:07:00,
2013-03-03 04:13:00,13.5,11.1,30.22,West,268,0.0,0.0,90,0.00,,,0.00,0,Wunderground v.1.15,2013-03-03 10:13:00,
2013-03-03 04:19:00,13.5,11.1,30.23,West,268,0.0,0.0,90,0.00,,,0.00,0,Wunderground v.1.15,2013-03-03 10:19:00,
2013-03-03 04:24:00,13.5,11.1,30.23,West,268,0.0,0.0,90,0.00,,,0.00,0,Wunderground v.1.15,2013-03-03 10:24:00,
2013-03-03 04:30:00,13.5,11.1,30.22,West,268,0.0,0.0,90,0.00,,,0.00,0,Wunderground v.1.15,2013-03-03 10:30:00,
2013-03-03 04:35:00,13.5,11.1,30.22,West,268,0.0,0.0,90,0.00,,,0.00,0,Wunderground v.1.15,2013-03-03 10:35:00,
2013-03-03 04:41:00,13.5,11.1,30.22,West,268,0.0,0.0,90,0.00,,,0.00,0,Wunderground v.1.15,2013-03-03 10:41:00,
2013-03-03 04:47:00,13.5,11.1,30.23,West,268,0.0,0.0,90,0.00,,,0.00,0,Wunderground v.1.15,2013-03-03 10:47:00,
2013-03-03 04:53:00,13.6,11.2,30.22,West,268,0.0,0.0,90,0.00,,,0.00,0,Wunderground v.1.15,2013-03-03 10:53:00,
2013-03-03 04:59:00,13.7,11.3,30.22,West,268,0.0,0.0,90,0.00,,,0.00,0,Wunderground v.1.15,2013-03-03 10:59:00,
2013-03-03 05:05:00,13.7,11.3,30.22,West,268,0.0,0.0,90,0.00,,,0.00,0,Wunderground v.1.15,2013-03-03 11:05:00,
2013-03-03 05:11:00,13.7,11.3,30.23,West,268,0.0,0.0,90,0.00,,,0.00,0,Wunderground v.1.15,2013-03-03 11:11:00,
2013-03-03 05:16:00,13.7,11.3,30.22,West,268,0.0,0.0,90,0.00,,,0.00,0,Wunderground v.1.15,2013-03-03 11:16:00,
2013-03-03 05:22:00,13.7,11.3,30.22,West,268,0.0,0.0,90,0.00,,,0.00,0,Wunderground v.1.15,2013-03-03 11:22:00,
2013-03-03 05:28:00,13.6,11.2,30.22,West,268,0.0,0.0,90,0.00,,,0.00,0,Wunderground v.1.15,2013-03-03 11:28:00,
2013-03-03 05:34:00,13.6,11.2,30.22,West,268,0.0,0.0,90,0.00,,,0.00,0,Wunderground v.1.15,2013-03-03 11:34:00,
2013-03-03 05:39:00,13.6,11.2,30.22,West,268,0.0,0.0,90,0.00,,,0.00,0,Wunderground v.1.15,2013-03-03 11:39:00,
2013-03-03 05:45:00,13.6,11.2,30.22,West,268,0.0,0.0,90,0.00,,,0.00,0,Wunderground v.1.15,2013-03-03 11:45:00,
2013-03-03 05:51:00,13.8,11.7,30.22,West,268,0.0,0.0,91,0.00,,,0.00,0,Wunderground v.1.15,2013-03-03 11:51:00,
2013-03-03 05:57:00,13.9,11.8,30.22,West,268,0.0,0.0,91,0.00,,,0.00,0,Wunderground v.1.15,2013-03-03 11:57:00,
2013-03-03 06:02:00,13.9,11.5,30.21,West,268,0.0,0.0,90,0.00,,,0.00,0,Wunderground v.1.15,2013-03-03 12:02:00,
2013-03-03 06:08:00,13.9,11.5,30.22,West,268,0.0,0.0,90,0.00,,,0.00,0,Wunderground v.1.15,2013-03-03 12:08:00,
2013-03-03 06:14:00,13.9,11.5,30.22,West,268,0.0,0.0,90,0.00,,,0.00,0,Wunderground v.1.15,2013-03-03 12:14:00,
2013-03-03 06:19:00,13.8,11.4,30.22,West,268,0.0,0.0,90,0.00,,,0.00,0,Wunderground v.1.15,2013-03-03 12:19:00,
2013-03-03 06:25:00,13.7,11.3,30.22,West,268,0.0,0.0,90,0.00,,,0.00,0,Wunderground v.1.15,2013-03-03 12:25:00,
2013-03-03 06:31:00,13.7,11.3,30.22,West,268,0.0,0.0,90,0.00,,,0.00,0,Wunderground v.1.15,2013-03-03 12:31:00,
2013-03-03 06:37:00,13.7,11.3,30.22,West,268,0.0,0.0,90,0.00,,,0.00,5,Wunderground v.1.15,2013-03-03 12:37:00,
2013-03-03 06:42:00,13.6,11.2,30.22,West,268,0.0,0.0,90,0.00,,,0.00,7,Wunderground v.1.15,2013-03-03 12:42:00,
2013-03-03 06:48:00,13.6,11.2,30.22,West,268,0.0,0.0,90,0.00,,,0.00,11,Wunderground v.1.15,2013-03-03 12:48:00,
2013-03-03 06:54:00,13.5,11.1,30.22,West,268,0.0,0.0,90,0.00,,,0.00,12,Wunderground v.1.15,2013-03-03 12:54:00,
2013-03-03 07:00:00,13.5,11.1,30.21,West,268,0.0,0.0,90,0.00,,,0.00,16,Wunderground v.1.15,2013-03-03 13:00:00,
2013-03-03 07:06:00,13.4,11.0,30.21,West,268,0.0,0.0,90,0.00,,,0.00,19,Wunderground v.1.15,2013-03-03 13:06:00,
2013-03-03 07:11:00,13.4,11.0,30.22,West,268,0.0,0.0,90,0.00,,,0.00,30,Wunderground v.1.15,2013-03-03 13:11:00,
2013-03-03 07:17:00,13.5,11.1,30.22,West,268,0.0,0.0,90,0.00,,,0.00,39,Wunderground v.1.15,2013-03-03 13:17:00,
2013-03-03 07:23:00,13.5,11.1,30.22,West,268,0.0,0.0,90,0.00,,,0.00,44,Wunderground v.1.15,2013-03-03 13:23:00,
2013-03-03 07:29:00,13.7,11.3,30.23,West,268,0.0,0.0,90,0.00,,,0.00,35,Wunderground v.1.15,2013-03-03 13:29:00,
2013-03-03 07:34:00,13.9,11.5,30.23,West,268,0.0,0.0,90,0.00,,,0.00,33,Wunderground v.1.15,2013-03-03 13:34:00,
2013-03-03 07:40:00,14.1,12.0,30.23,West,268,0.0,0.0,91,0.00,,,0.00,32,Wunderground v.1.15,2013-03-03 13:40:00,
2013-03-03 07:46:00,14.6,12.5,30.23,West,268,0.0,0.0,91,0.00,,,0.00,39,Wunderground v.1.15,2013-03-03 13:46:00,
2013-03-03 07:52:00,15.2,13.3,30.23,West,268,0.0,0.0,92,0.00,,,0.00,49,Wunderground v.1.15,2013-03-03 13:52:00,
2013-03-03 07:58:00,15.6,13.7,30.23,West,268,0.0,0.0,92,0.00,,,0.00,95,Wunderground v.1.15,2013-03-03 13:58:00,
2013-03-03 08:04:00,16.2,14.3,30.23,West,268,0.0,0.0,92,0.00,,,0.00,169,Wunderground v.1.15,2013-03-03 14:04:00,
2013-03-03 08:10:00,19.5,18.1,30.22,West,268,0.0,0.0,94,0.00,,,0.00,151,Wunderground v.1.15,2013-03-03 14:10:00,
2013-03-03 08:15:00,21.6,19.6,30.22,West,268,0.0,0.0,92,0.00,,,0.00,139,Wunderground v.1.15,2013-03-03 14:15:00,
2013-03-03 08:21:00,22.7,19.1,30.22,WSW,244,0.0,1.0,86,0.00,,,0.00,195,Wunderground v.1.15,2013-03-03 14:21:00,
2013-03-03 08:27:00,23.1,19.3,30.22,WSW,244,0.0,1.0,85,0.00,,,0.00,278,Wunderground v.1.15,2013-03-03 14:27:00,
2013-03-03 08:33:00,23.3,18.6,30.22,SSW,198,0.0,3.0,82,0.00,,,0.00,130,Wunderground v.1.15,2013-03-03 14:33:00,
2013-03-03 08:38:00,23.8,19.1,30.22,SE,128,1.0,3.0,82,0.00,,,0.00,336,Wunderground v.1.15,2013-03-03 14:38:00,
2013-03-03 08:44:00,24.3,19.0,30.22,SSW,203,1.0,3.0,80,0.00,,,0.00,188,Wunderground v.1.15,2013-03-03 14:44:00,
2013-03-03 08:50:00,24.7,19.1,30.22,SW,215,2.0,3.0,79,0.00,,,0.00,181,Wunderground v.1.15,2013-03-03 14:50:00,
2013-03-03 08:56:00,25.3,19.7,30.22,SW,215,1.0,3.0,79,0.00,,,0.00,406,Wunderground v.1.15,2013-03-03 14:56:00,
2013-03-03 09:02:00,25.3,19.7,30.22,SSE,168,2.0,3.0,79,0.00,,,0.00,227,Wunderground v.1.15,2013-03-03 15:02:00,
2013-03-03 09:08:00,25.7,20.1,30.22,South,188,2.0,3.0,79,0.00,,,0.00,230,Wunderground v.1.15,2013-03-03 15:08:00,
2013-03-03 09:14:00,26.0,20.4,30.22,SSW,194,1.0,2.0,79,0.00,,,0.00,258,Wunderground v.1.15,2013-03-03 15:14:00,
2013-03-03 09:20:00,26.4,20.5,30.22,SSE,164,2.0,2.0,78,0.00,,,0.00,218,Wunderground v.1.15,2013-03-03 15:20:00,
2013-03-03 09:25:00,26.7,20.5,30.22,ESE,103,2.0,2.0,77,0.00,,,0.00,244,Wunderground v.1.15,2013-03-03 15:25:00,
2013-03-03 09:31:00,27.0,20.4,30.22,SSE,148,1.0,1.0,76,0.00,,,0.00,241,Wunderground v.1.15,2013-03-03 15:31:00,
2013-03-03 09:37:00,27.2,20.6,30.22,South,186,1.0,3.0,76,0.00,,,0.00,230,Wunderground v.1.15,2013-03-03 15:37:00,
2013-03-03 09:42:00,27.4,20.8,30.22,South,191,1.0,2.0,76,0.00,,,0.00,250,Wunderground v.1.15,2013-03-03 15:42:00,
2013-03-03 09:47:00,27.7,20.8,30.21,West,265,1.0,3.0,75,0.00,,,0.00,253,Wunderground v.1.15,2013-03-03 15:47:00,
2013-03-03 09:52:00,28.0,21.1,30.21,SSE,152,1.0,2.0,75,0.00,,,0.00,274,Wunderground v.1.15,2013-03-03 15:52:00,
2013-03-03 09:58:00,28.3,20.4,30.21,SE,126,2.0,4.0,72,0.00,,,0.00,362,Wunderground v.1.15,2013-03-03 15:58:00,
2013-03-03 10:04:00,28.9,21.3,30.21,SSE,158,2.0,4.0,73,0.00,,,0.00,394,Wunderground v.1.15,2013-03-03 16:04:00,
2013-03-03 10:10:00,29.9,22.6,30.20,South,169,2.0,2.0,74,0.00,,,0.00,417,Wunderground v.1.15,2013-03-03 16:10:00,
2013-03-03 10:15:00,30.0,21.7,30.20,South,175,1.0,3.0,71,0.00,,,0.00,459,Wunderground v.1.15,2013-03-03 16:15:00,
2013-03-03 10:21:00,30.1,21.5,30.20,SW,215,2.0,3.0,70,0.00,,,0.00,461,Wunderground v.1.15,2013-03-03 16:21:00,
2013-03-03 10:27:00,30.5,21.9,30.20,ENE,63,2.0,6.0,70,0.00,,,0.00,480,Wunderground v.1.15,2013-03-03 16:27:00,
2013-03-03 10:33:00,31.9,22.5,30.20,SSE,157,2.0,3.0,68,0.00,,,0.00,647,Wunderground v.1.15,2013-03-03 16:33:00,
2013-03-03 10:38:00,32.3,22.2,30.19,SSE,165,2.0,4.0,66,0.00,,,0.00,420,Wunderground v.1.15,2013-03-03 16:38:00,
2013-03-03 10:44:00,32.0,20.8,30.19,South,178,2.0,5.0,63,0.00,,,0.00,345,Wunderground v.1.15,2013-03-03 16:44:00,
2013-03-03 10:50:00,32.8,22.0,30.19,SSW,205,2.0,4.0,64,0.00,,,0.00,823,Wunderground v.1.15,2013-03-03 16:50:00,
2013-03-03 10:56:00,32.8,22.7,30.19,SW,229,2.0,4.0,66,0.00,,,0.01,359,Wunderground v.1.15,2013-03-03 16:56:00,
2013-03-03 11:02:00,32.9,22.0,30.19,SE,141,1.0,6.0,64,0.00,,,0.01,311,Wunderground v.1.15,2013-03-03 17:02:00,
2013-03-03 11:08:00,32.8,21.6,30.19,South,169,2.0,6.0,63,0.00,,,0.01,482,Wunderground v.1.15,2013-03-03 17:08:00,
2013-03-03 11:14:00,33.7,22.8,30.19,SSW,198,2.0,2.0,64,0.00,,,0.01,722,Wunderground v.1.15,2013-03-03 17:14:00,
2013-03-03 11:20:00,34.1,22.0,30.18,SE,138,2.0,2.0,61,0.00,,,0.01,598,Wunderground v.1.15,2013-03-03 17:20:00,
2013-03-03 11:25:00,34.2,22.1,30.18,ESE,114,2.0,2.0,61,0.00,,,0.01,545,Wunderground v.1.15,2013-03-03 17:25:00,
2013-03-03 11:31:00,34.8,21.9,30.18,SE,134,2.0,4.0,59,0.00,,,0.01,490,Wunderground v.1.15,2013-03-03 17:31:00,
2013-03-03 11:37:00,35.4,22.1,30.17,ESE,113,3.0,4.0,58,0.00,,,0.01,478,Wunderground v.1.15,2013-03-03 17:37:00,
2013-03-03 11:43:00,35.7,21.9,30.17,SSE,165,2.0,4.0,57,0.00,,,0.01,596,Wunderground v.1.15,2013-03-03 17:43:00,
2013-03-03 11:49:00,35.8,21.6,30.16,ESE,116,3.0,4.0,56,0.00,,,0.01,543,Wunderground v.1.15,2013-03-03 17:49:00,
2013-03-03 11:55:00,36.4,21.8,30.16,South,180,2.0,4.0,55,0.00,,,0.01,686,Wunderground v.1.15,2013-03-03 17:55:00,
2013-03-03 12:01:00,37.0,21.4,30.16,East,87,3.0,5.0,53,0.00,,,0.01,510,Wunderground v.1.15,2013-03-03 18:01:00,
2013-03-03 12:07:00,36.8,20.8,30.15,East,81,3.0,6.0,52,0.00,,,0.02,489,Wunderground v.1.15,2013-03-03 18:07:00,
2013-03-03 12:12:00,37.7,22.1,30.15,SSW,211,3.0,3.0,53,0.00,,,0.02,729,Wunderground v.1.15,2013-03-03 18:12:00,
2013-03-03 12:18:00,37.7,21.6,30.14,SW,236,3.0,4.0,52,0.00,,,0.02,795,Wunderground v.1.15,2013-03-03 18:18:00,
2013-03-03 12:24:00,38.3,22.2,30.14,SSE,150,3.0,4.0,52,0.00,,,0.02,533,Wunderground v.1.15,2013-03-03 18:24:00,
2013-03-03 12:30:00,37.8,22.2,30.14,SSE,153,3.0,5.0,53,0.00,,,0.02,504,Wunderground v.1.15,2013-03-03 18:30:00,
2013-03-03 12:36:00,38.4,22.3,30.14,ESE,108,2.0,5.0,52,0.00,,,0.02,376,Wunderground v.1.15,2013-03-03 18:36:00,
2013-03-03 12:41:00,38.4,21.4,30.13,South,173,2.0,3.0,50,0.00,,,0.02,360,Wunderground v.1.15,2013-03-03 18:41:00,
2013-03-03 12:46:00,38.2,20.7,30.13,SSE,150,3.0,4.0,49,0.00,,,0.02,237,Wunderground v.1.15,2013-03-03 18:46:00,
2013-03-03 12:52:00,38.2,22.6,30.13,South,170,2.0,3.0,53,0.00,,,0.02,225,Wunderground v.1.15,2013-03-03 18:52:00,
2013-03-03 12:58:00,38.4,22.3,30.12,SSW,198,2.0,3.0,52,0.00,,,0.02,239,Wunderground v.1.15,2013-03-03 18:58:00,
2013-03-03 13:03:00,38.4,22.3,30.12,SW,220,2.0,8.0,52,0.00,,,0.02,281,Wunderground v.1.15,2013-03-03 19:03:00,
2013-03-03 13:09:00,38.8,22.7,30.12,South,173,2.0,8.0,52,0.00,,,0.02,330,Wunderground v.1.15,2013-03-03 19:09:00,
2013-03-03 13:15:00,39.1,22.9,30.11,SSE,163,2.0,3.0,52,0.00,,,0.02,281,Wunderground v.1.15,2013-03-03 19:15:00,
2013-03-03 13:21:00,39.1,22.0,30.10,SSE,155,2.0,5.0,50,0.00,,,0.02,251,Wunderground v.1.15,2013-03-03 19:21:00,
2013-03-03 13:26:00,39.0,21.9,30.10,SSE,148,3.0,5.0,50,0.00,,,0.02,292,Wunderground v.1.15,2013-03-03 19:26:00,
2013-03-03 13:32:00,39.7,22.6,30.10,South,188,2.0,4.0,50,0.00,,,0.02,309,Wunderground v.1.15,2013-03-03 19:32:00,
2013-03-03 13:38:00,39.8,22.7,30.09,SSE,157,2.0,4.0,50,0.00,,,0.02,316,Wunderground v.1.15,2013-03-03 19:38:00,
2013-03-03 13:44:00,40.4,23.7,30.09,South,170,1.0,6.0,51,0.00,,,0.02,221,Wunderground v.1.15,2013-03-03 19:44:00,
2013-03-03 13:49:00,40.2,22.5,30.09,SSE,168,2.0,6.0,49,0.00,,,0.02,188,Wunderground v.1.15,2013-03-03 19:49:00,
2013-03-03 13:55:00,39.8,21.7,30.08,SSW,200,2.0,4.0,48,0.00,,,0.02,156,Wunderground v.1.15,2013-03-03 19:55:00,
2013-03-03 14:01:00,39.8,22.2,30.08,South,181,2.0,6.0,49,0.00,,,0.02,123,Wunderground v.1.15,2013-03-03 20:01:00,
2013-03-03 14:06:00,39.8,22.2,30.08,SE,129,1.0,6.0,49,0.00,,,0.02,134,Wunderground v.1.15,2013-03-03 20:06:00,
2013-03-03 14:12:00,40.0,22.8,30.08,SSE,150,1.0,1.0,50,0.00,,,0.02,176,Wunderground v.1.15,2013-03-03 20:12:00,
2013-03-03 14:17:00,40.0,22.4,30.08,SSE,155,1.0,2.0,49,0.00,,,0.02,204,Wunderground v.1.15,2013-03-03 20:17:00,
2013-03-03 14:23:00,40.2,22.5,30.07,East,86,2.0,4.0,49,0.00,,,0.02,230,Wunderground v.1.15,2013-03-03 20:23:00,
2013-03-03 14:29:00,40.6,22.9,30.07,SSE,161,2.0,4.0,49,0.00,,,0.02,230,Wunderground v.1.15,2013-03-03 20:29:00,
2013-03-03 14:34:00,40.9,23.2,30.07,SSE,155,2.0,2.0,49,0.00,,,0.02,209,Wunderground v.1.15,2013-03-03 20:34:00,
2013-03-03 14:39:00,40.8,22.6,30.07,ENE,74,2.0,5.0,48,0.00,,,0.02,160,Wunderground v.1.15,2013-03-03 20:39:00,
2013-03-03 14:44:00,40.6,22.9,30.07,ESE,119,3.0,4.0,49,0.00,,,0.02,125,Wunderground v.1.15,2013-03-03 20:44:00,
2013-03-03 14:50:00,40.4,22.7,30.07,ESE,111,2.0,4.0,49,0.00,,,0.02,109,Wunderground v.1.15,2013-03-03 20:50:00,
2013-03-03 14:56:00,40.5,23.3,30.07,SE,134,1.0,4.0,50,0.00,,,0.02,181,Wunderground v.1.15,2013-03-03 20:56:00,
2013-03-03 15:02:00,41.0,22.8,30.06,SSE,153,1.0,2.0,48,0.00,,,0.02,292,Wunderground v.1.15,2013-03-03 21:02:00,
2013-03-03 15:08:00,41.6,23.3,30.06,ESE,121,2.0,4.0,48,0.00,,,0.02,561,Wunderground v.1.15,2013-03-03 21:08:00,
2013-03-03 15:14:00,42.0,23.2,30.06,SSE,151,3.0,5.0,47,0.00,,,0.02,265,Wunderground v.1.15,2013-03-03 21:14:00,
2013-03-03 15:19:00,41.9,23.1,30.06,SE,136,3.0,5.0,47,0.00,,,0.02,237,Wunderground v.1.15,2013-03-03 21:19:00,
2013-03-03 15:25:00,41.8,23.0,30.05,South,179,3.0,3.0,47,0.00,,,0.02,176,Wunderground v.1.15,2013-03-03 21:25:00,
2013-03-03 15:31:00,41.6,23.8,30.05,East,98,2.0,2.0,49,0.00,,,0.02,144,Wunderground v.1.15,2013-03-03 21:31:00,
2013-03-03 15:36:00,41.5,22.7,30.05,SE,142,2.0,4.0,47,0.00,,,0.02,162,Wunderground v.1.15,2013-03-03 21:36:00,
2013-03-03 15:42:00,41.5,23.7,30.05,East,79,2.0,7.0,49,0.00,,,0.02,139,Wunderground v.1.15,2013-03-03 21:42:00,
2013-03-03 15:47:00,41.5,23.7,30.05,SE,136,2.0,7.0,49,0.00,,,0.02,142,Wunderground v.1.15,2013-03-03 21:47:00,
2013-03-03 15:53:00,41.5,23.7,30.05,South,171,3.0,6.0,49,0.00,,,0.02,135,Wunderground v.1.15,2013-03-03 21:53:00,
2013-03-03 15:59:00,41.6,24.3,30.04,SSW,193,2.0,6.0,50,0.00,,,0.02,135,Wunderground v.1.15,2013-03-03 21:59:00,
2013-03-03 16:04:00,41.6,24.3,30.04,SE,128,2.0,3.0,50,0.00,,,0.02,127,Wunderground v.1.15,2013-03-03 22:04:00,
2013-03-03 16:10:00,41.5,23.7,30.04,SE,124,2.0,2.0,49,0.00,,,0.02,109,Wunderground v.1.15,2013-03-03 22:10:00,
2013-03-03 16:16:00,41.4,23.6,30.04,SSE,148,2.0,3.0,49,0.00,,,0.02,88,Wunderground v.1.15,2013-03-03 22:16:00,
2013-03-03 16:22:00,41.3,23.6,30.04,SSE,148,2.0,4.0,49,0.00,,,0.02,88,Wunderground v.1.15,2013-03-03 22:22:00,
2013-03-03 16:27:00,41.1,23.9,30.04,South,169,2.0,4.0,50,0.00,,,0.02,91,Wunderground v.1.15,2013-03-03 22:27:00,
2013-03-03 16:32:00,41.1,23.4,30.04,SSW,207,2.0,2.0,49,0.00,,,0.02,79,Wunderground v.1.15,2013-03-03 22:32:00,
2013-03-03 16:37:00,41.0,23.8,30.04,ESE,119,2.0,4.0,50,0.00,,,0.02,77,Wunderground v.1.15,2013-03-03 22:37:00,
2013-03-03 16:43:00,41.0,23.3,30.03,SSE,157,2.0,4.0,49,0.00,,,0.02,65,Wunderground v.1.15,2013-03-03 22:43:00,
2013-03-03 16:48:00,40.9,23.2,30.03,SE,138,2.0,4.0,49,0.00,,,0.02,79,Wunderground v.1.15,2013-03-03 22:48:00,
2013-03-03 16:54:00,40.9,23.2,30.03,SSE,150,2.0,4.0,49,0.00,,,0.02,77,Wunderground v.1.15,2013-03-03 22:54:00,
2013-03-03 16:59:00,40.8,23.1,30.03,ESE,112,2.0,4.0,49,0.00,,,0.02,63,Wunderground v.1.15,2013-03-03 22:59:00,
2013-03-03 17:04:00,40.8,23.1,30.03,South,171,2.0,7.0,49,0.00,,,0.02,58,Wunderground v.1.15,2013-03-03 23:04:00,
2013-03-03 17:10:00,40.5,23.3,30.03,ENE,77,2.0,2.0,50,0.00,,,0.02,40,Wunderground v.1.15,2013-03-03 23:10:00,
2013-03-03 17:16:00,40.4,22.7,30.02,SSE,156,1.0,2.0,49,0.00,,,0.02,37,Wunderground v.1.15,2013-03-03 23:16:00,
2013-03-03 17:21:00,40.2,23.0,30.02,ESE,123,1.0,2.0,50,0.00,,,0.02,33,Wunderground v.1.15,2013-03-03 23:21:00,
2013-03-03 17:27:00,40.1,22.4,30.02,SE,138,2.0,5.0,49,0.00,,,0.02,25,Wunderground v.1.15,2013-03-03 23:27:00,
2013-03-03 17:33:00,39.9,22.3,30.02,SSE,155,2.0,3.0,49,0.00,,,0.02,18,Wunderground v.1.15,2013-03-03 23:33:00,
2013-03-03 17:39:00,39.8,22.2,30.02,SE,129,2.0,3.0,49,0.00,,,0.02,14,Wunderground v.1.15,2013-03-03 23:39:00,
2013-03-03 17:44:00,39.7,22.1,30.02,SSE,160,2.0,3.0,49,0.00,,,0.02,9,Wunderground v.1.15,2013-03-03 23:44:00,
2013-03-03 17:50:00,39.5,22.4,30.02,SE,129,1.0,4.0,50,0.00,,,0.02,5,Wunderground v.1.15,2013-03-03 23:50:00,
2013-03-03 17:56:00,39.4,21.8,30.02,ESE,123,2.0,4.0,49,0.00,,,0.02,0,Wunderground v.1.15,2013-03-03 23:56:00,
2013-03-03 18:02:00,39.3,21.7,30.02,SE,128,2.0,5.0,49,0.00,,,0.02,0,Wunderground v.1.15,2013-03-04 00:02:00,
2013-03-03 18:07:00,39.3,21.2,30.02,SE,144,2.0,5.0,48,0.00,,,0.02,0,Wunderground v.1.15,2013-03-04 00:07:00,
2013-03-03 18:13:00,39.2,21.6,30.02,SE,141,2.0,3.0,49,0.00,,,0.02,0,Wunderground v.1.15,2013-03-04 00:13:00,
2013-03-03 18:19:00,39.3,21.2,30.03,SSE,163,1.0,4.0,48,0.00,,,0.02,0,Wunderground v.1.15,2013-03-04 00:19:00,
2013-03-03 18:24:00,39.2,21.6,30.03,SSE,163,1.0,1.0,49,0.00,,,0.02,0,Wunderground v.1.15,2013-03-04 00:24:00,
2013-03-03 18:29:00,39.1,21.5,30.03,South,178,1.0,2.0,49,0.00,,,0.02,0,Wunderground v.1.15,2013-03-04 00:29:00,
2013-03-03 18:34:00,39.0,21.9,30.03,South,176,1.0,3.0,50,0.00,,,0.02,0,Wunderground v.1.15,2013-03-04 00:34:00,
2013-03-03 18:40:00,38.8,22.2,30.03,SE,125,1.0,1.0,51,0.00,,,0.02,0,Wunderground v.1.15,2013-03-04 00:40:00,
2013-03-03 18:46:00,38.4,23.2,30.03,SE,144,1.0,1.0,54,0.00,,,0.02,0,Wunderground v.1.15,2013-03-04 00:46:00,
2013-03-03 18:52:00,38.4,21.8,30.03,ESE,119,0.0,1.0,51,0.00,,,0.02,0,Wunderground v.1.15,2013-03-04 00:52:00,
2013-03-03 18:57:00,38.5,21.9,30.03,ESE,113,1.0,3.0,51,0.00,,,0.02,0,Wunderground v.1.15,2013-03-04 00:57:00,
2013-03-03 19:02:00,38.4,22.3,30.03,SSE,166,1.0,5.0,52,0.00,,,0.02,0,Wunderground v.1.15,2013-03-04 01:02:00,
2013-03-03 19:08:00,38.4,22.3,30.03,SE,140,1.0,5.0,52,0.00,,,0.02,0,Wunderground v.1.15,2013-03-04 01:08:00,
2013-03-03 19:13:00,38.4,21.8,30.03,SE,138,1.0,4.0,51,0.00,,,0.02,0,Wunderground v.1.15,2013-03-04 01:13:00,
2013-03-03 19:19:00,38.5,21.9,30.03,SE,143,1.0,4.0,51,0.00,,,0.02,0,Wunderground v.1.15,2013-03-04 01:19:00,
2013-03-03 19:25:00,38.6,21.5,30.03,ENE,67,1.0,2.0,50,0.00,,,0.02,0,Wunderground v.1.15,2013-03-04 01:25:00,
2013-03-03 19:30:00,38.5,22.4,30.03,East,91,1.0,2.0,52,0.00,,,0.02,0,Wunderground v.1.15,2013-03-04 01:30:00,
2013-03-03 19:36:00,38.5,22.4,30.03,SSE,149,1.0,2.0,52,0.00,,,0.02,0,Wunderground v.1.15,2013-03-04 01:36:00,
2013-03-03 19:42:00,38.3,22.2,30.03,SE,146,1.0,1.0,52,0.00,,,0.02,0,Wunderground v.1.15,2013-03-04 01:42:00,
2013-03-03 19:48:00,38.2,22.1,30.02,South,181,1.0,2.0,52,0.00,,,0.02,0,Wunderground v.1.15,2013-03-04 01:48:00,
2013-03-03 19:53:00,38.1,22.5,30.02,SSE,155,1.0,2.0,53,0.00,,,0.02,0,Wunderground v.1.15,2013-03-04 01:53:00,
2013-03-03 19:59:00,37.9,22.3,30.01,ESE,103,1.0,2.0,53,0.00,,,0.02,0,Wunderground v.1.15,2013-03-04 01:59:00,
2013-03-03 20:05:00,37.7,22.1,30.01,SSE,160,1.0,5.0,53,0.00,,,0.02,0,Wunderground v.1.15,2013-03-04 02:05:00,
2013-03-03 20:11:00,37.6,22.0,30.01,SSW,207,1.0,2.0,53,0.00,,,0.02,0,Wunderground v.1.15,2013-03-04 02:11:00,
2013-03-03 20:16:00,37.5,21.9,30.01,SE,142,1.0,3.0,53,0.00,,,0.02,0,Wunderground v.1.15,2013-03-04 02:16:00,
2013-03-03 20:22:00,37.5,21.5,30.02,ENE,62,1.0,4.0,52,0.00,,,0.02,0,Wunderground v.1.15,2013-03-04 02:22:00,
2013-03-03 20:28:00,37.5,21.9,30.02,SSE,158,1.0,7.0,53,0.00,,,0.02,0,Wunderground v.1.15,2013-03-04 02:28:00,
2013-03-03 20:34:00,37.5,21.5,30.02,SSE,155,1.0,3.0,52,0.00,,,0.02,0,Wunderground v.1.15,2013-03-04 02:34:00,
2013-03-03 20:39:00,37.4,22.3,30.02,South,181,1.0,3.0,54,0.00,,,0.02,0,Wunderground v.1.15,2013-03-04 02:39:00,
2013-03-03 20:45:00,37.4,22.3,30.02,SSW,211,1.0,2.0,54,0.00,,,0.02,0,Wunderground v.1.15,2013-03-04 02:45:00,
2013-03-03 20:51:00,37.4,21.8,30.02,SE,144,2.0,2.0,53,0.00,,,0.02,0,Wunderground v.1.15,2013-03-04 02:51:00,
2013-03-03 20:57:00,37.5,22.3,30.01,ESE,117,1.0,4.0,54,0.00,,,0.02,0,Wunderground v.1.15,2013-03-04 02:57:00,
2013-03-03 21:02:00,37.5,22.3,30.01,SSE,152,1.0,3.0,54,0.00,,,0.02,0,Wunderground v.1.15,2013-03-04 03:02:00,
2013-03-03 21:08:00,37.6,22.9,30.01,WSW,242,2.0,3.0,55,0.00,,,0.02,0,Wunderground v.1.15,2013-03-04 03:08:00,
2013-03-03 21:14:00,37.6,22.9,30.01,SSE,157,2.0,8.0,55,0.00,,,0.02,0,Wunderground v.1.15,2013-03-04 03:14:00,
2013-03-03 21:20:00,37.7,23.0,30.02,East,99,2.0,2.0,55,0.00,,,0.02,0,Wunderground v.1.15,2013-03-04 03:20:00,
2013-03-03 21:25:00,37.7,23.4,30.01,South,177,2.0,5.0,56,0.00,,,0.02,0,Wunderground v.1.15,2013-03-04 03:25:00,
2013-03-03 21:31:00,37.7,23.8,30.01,SSW,196,3.0,3.0,57,0.00,,,0.02,0,Wunderground v.1.15,2013-03-04 03:31:00,
2013-03-03 21:37:00,37.7,23.8,30.01,East,84,4.0,5.0,57,0.00,,,0.02,0,Wunderground v.1.15,2013-03-04 03:37:00,
2013-03-03 21:43:00,37.6,23.7,30.01,SE,130,3.0,6.0,57,0.00,,,0.02,0,Wunderground v.1.15,2013-03-04 03:43:00,
2013-03-03 21:48:00,37.4,24.0,30.01,SE,145,3.0,6.0,58,0.00,,,0.02,0,Wunderground v.1.15,2013-03-04 03:48:00,
2013-03-03 21:54:00,37.2,24.2,30.01,SE,146,3.0,4.0,59,0.00,,,0.02,0,Wunderground v.1.15,2013-03-04 03:54:00,
2013-03-03 22:00:00,37.0,24.0,30.01,SSE,153,3.0,5.0,59,0.00,,,0.02,0,Wunderground v.1.15,2013-03-04 04:00:00,
2013-03-03 22:06:00,36.9,24.3,30.01,SE,140,3.0,5.0,60,0.00,,,0.02,0,Wunderground v.1.15,2013-03-04 04:06:00,
2013-03-03 22:12:00,36.8,24.2,30.00,ESE,115,3.0,3.0,60,0.00,,,0.02,0,Wunderground v.1.15,2013-03-04 04:12:00,
2013-03-03 22:18:00,36.6,24.4,30.00,East,80,3.0,4.0,61,0.00,,,0.02,0,Wunderground v.1.15,2013-03-04 04:18:00,
2013-03-03 22:24:00,36.6,24.8,30.00,SSE,149,3.0,3.0,62,0.00,,,0.02,0,Wunderground v.1.15,2013-03-04 04:24:00,
2013-03-03 22:29:00,36.5,24.7,30.01,SSE,161,3.0,4.0,62,0.00,,,0.02,0,Wunderground v.1.15,2013-03-04 04:29:00,
2013-03-03 22:35:00,36.4,24.6,30.00,SE,130,3.0,4.0,62,0.00,,,0.02,0,Wunderground v.1.15,2013-03-04 04:35:00,
2013-03-03 22:41:00,36.4,25.0,30.00,SSE,160,4.0,9.0,63,0.00,,,0.02,0,Wunderground v.1.15,2013-03-04 04:41:00,
2013-03-03 22:46:00,36.4,25.0,30.00,South,171,5.0,9.0,63,0.00,,,0.02,0,Wunderground v.1.15,2013-03-04 04:46:00,
2013-03-03 22:51:00,36.4,25.4,30.00,SE,144,3.0,4.0,64,0.00,,,0.02,0,Wunderground v.1.15,2013-03-04 04:51:00,
2013-03-03 22:57:00,36.3,25.3,30.00,SSE,161,3.0,6.0,64,0.00,,,0.02,0,Wunderground v.1.15,2013-03-04 04:57:00,
2013-03-03 23:00:00,36.3,25.3,30.00,SSE,155,3.0,6.0,64,0.00,,,0.02,0,Wunderground v.1.15,2013-03-04 05:00:00,
2013-03-03 23:02:00,36.2,25.6,30.00,South,184,4.0,8.0,65,0.00,,,0.02,0,Wunderground v.1.15,2013-03-04 05:02:00,
2013-03-03 23:04:00,36.2,25.6,30.00,SSE,148,4.0,8.0,65,0.00,,,0.02,0,Wunderground v.1.15,2013-03-04 05:04:00,
2013-03-03 23:06:00,36.2,25.6,30.00,SSW,197,4.0,8.0,65,0.00,,,0.02,0,Wunderground v.1.15,2013-03-04 05:06:00,
2013-03-03 23:12:00,36.1,25.5,30.00,SSE,165,3.0,4.0,65,0.00,,,0.02,0,Wunderground v.1.15,2013-03-04 05:12:00,
2013-03-03 23:18:00,36.1,25.8,30.00,SSW,200,3.0,7.0,66,0.00,,,0.02,0,Wunderground v.1.15,2013-03-04 05:18:00,
2013-03-03 23:24:00,36.1,26.2,30.00,SSE,159,3.0,5.0,67,0.00,,,0.02,0,Wunderground v.1.15,2013-03-04 05:24:00,
2013-03-03 23:30:00,36.0,26.1,30.01,SSE,154,2.0,2.0,67,0.00,,,0.02,0,Wunderground v.1.15,2013-03-04 05:30:00,
2013-03-03 23:35:00,36.0,26.1,30.01,SSE,153,3.0,7.0,67,0.00,,,0.02,0,Wunderground v.1.15,2013-03-04 05:35:00,
2013-03-03 23:41:00,35.9,26.0,30.00,SSE,155,3.0,3.0,67,0.00,,,0.02,0,Wunderground v.1.15,2013-03-04 05:41:00,
2013-03-03 23:46:00,35.9,26.4,30.00,SSE,156,3.0,3.0,68,0.00,,,0.02,0,Wunderground v.1.15,2013-03-04 05:46:00,
2013-03-03 23:52:00,35.9,26.4,30.00,South,169,2.0,3.0,68,0.00,,,0.02,0,Wunderground v.1.15,2013-03-04 05:52:00,
2013-03-03 23:58:00,35.9,26.4,30.00,South,180,2.0,3.0,68,0.00,,,0.02,0,Wunderground v.1.15,2013-03-04 05:58:00,